KF4IRC Weather Reports


time (UTC)temp
F
wind
direction
speed
knots
gust
knots
rain 1hr
in
rain 24hr
in
rain mn
in
humidity
%
barometer
mb
20260510202104 85 153 0.9 2.6 0.00 0.00 0.00 57 1016.6
20260510200543 85 169 0.0 5.2 0.00 0.00 0.00 59 1016.6
20260510195029 85 110 0.9 1.7 0.00 0.00 0.00 58 1016.6
20260510193532 85 139 0.9 2.6 0.00 0.00 0.00 61 1016.7
20260510192023 84 199 0.9 4.3 0.00 0.00 0.00 59 1016.7
20260510190530 84 93 0.9 3.5 0.00 0.00 0.00 61 1016.9
20260510185021 83 137 0.9 1.7 0.00 0.00 0.00 60 1017.1
20260510183520 83 119 0.9 3.5 0.00 0.00 0.00 62 1017.2
20260510182029 81 240 0.9 2.6 0.00 0.00 0.00 62 1017.4
20260510180531 80 242 1.7 2.6 0.00 0.00 0.00 65 1017.6
20260510175025 79 189 0.0 1.7 0.00 0.00 0.00 69 1017.8
20260510173537 78 233 0.0 1.7 0.00 0.00 0.00 71 1018.0
20260510172021 77 126 0.0 0.9 0.00 0.00 0.00 71 1018.0
20260510170544 76 128 0.0 1.7 0.00 0.00 0.00 74 1018.2
20260510165050 76 130 0.0 1.7 0.00 0.00 0.00 73 1018.6
20260510163521 75 96 0.0 1.7 0.00 0.00 0.00 76 1018.5
20260510162029 74 90 0.0 1.7 0.00 0.00 0.00 78 1018.3
20260510160519 73 230 0.0 2.6 0.00 0.00 0.00 80 1018.2
20260510155041 72 134 0.0 0.9 0.00 0.00 0.00 80 1018.2
20260510153543 73 134 0.0 1.7 0.00 0.00 0.00 81 1018.3
20260510152021 71 136 0.0 0.9 0.00 0.00 0.00 81 1018.2
20260510150545 71 136 0.0 0.9 0.00 0.00 0.00 81 1018.3
20260510145048 71 136 0.0 0.9 0.00 0.00 0.00 82 1018.6
20260510143530 70 136 0.0 0.9 0.00 0.00 0.00 82 1018.6
20260510142025 70 136 0.0 0.9 0.00 0.00 0.00 82 1018.4
20260510140518 70 88 0.0 0.0 0.00 0.00 0.00 82 1018.3
20260510135031 69 88 0.0 0.0 0.00 0.00 0.00 82 1018.2
20260510133522 69 88 0.0 0.0 0.00 0.00 0.00 82 1018.1
20260510132024 69 88 0.0 0.0 0.00 0.00 0.00 82 1018.1
20260510130610 68 88 0.0 0.0 0.00 0.00 0.00 82 1017.8
20260510125054 68 88 0.0 0.0 0.00 0.00 0.00 82 1017.7
20260510123544 68 96 0.0 0.0 0.00 0.00 0.00 82 1017.6
20260510122024 68 96 0.0 0.9 0.00 0.00 0.00 82 1017.2
20260510120518 67 96 0.0 0.9 0.00 0.00 0.00 82 1017.1
20260510115049 67 95 0.0 0.0 0.00 0.00 0.00 82 1016.7
20260510113519 67 96 0.0 0.0 0.00 0.00 0.00 82 1016.6
20260510112058 67 96 0.0 0.0 0.00 0.00 0.00 82 1016.4
20260510110529 67 96 0.0 0.0 0.00 0.00 0.00 82 1016.1
20260510105038 67 96 0.0 0.0 0.00 0.00 0.00 82 1016.0
20260510103524 67 96 0.0 0.0 0.00 0.00 0.00 82 1015.7
20260510102028 67 96 0.0 0.0 0.00 0.00 0.00 82 1015.6
20260510100518 67 96 0.0 0.9 0.00 0.00 0.00 82 1015.5
20260510095043 67 96 0.0 0.9 0.00 0.00 0.00 82 1015.2
20260510093518 67 95 0.0 1.7 0.00 0.00 0.00 82 1015.2
20260510092028 67 96 0.0 0.0 0.00 0.00 0.00 82 1015.0
20260510090519 67 96 0.0 0.0 0.00 0.00 0.00 82 1014.8
20260510085029 68 96 0.0 0.0 0.00 0.00 0.00 82 1014.6
20260510083519 68 96 0.0 0.0 0.00 0.00 0.00 82 1014.6
20260510082030 68 96 0.0 0.0 0.00 0.00 0.00 82 1014.5
20260510080541 68 96 0.0 0.0 0.00 0.00 0.00 82 1014.2
20260510075029 68 96 0.0 0.0 0.00 0.00 0.00 82 1014.0
20260510073524 68 96 0.0 0.0 0.00 0.00 0.00 82 1014.1
20260510072016 68 96 0.0 0.0 0.00 0.00 0.00 82 1014.4
20260510070523 68 96 0.0 0.0 0.00 0.00 0.00 82 1014.4
20260510065049 68 96 0.0 0.0 0.00 0.00 0.00 82 1014.0
20260510063522 68 96 0.0 0.0 0.00 0.00 0.00 82 1014.0
20260510062029 68 96 0.0 0.0 0.00 0.00 0.00 82 1013.8
20260510060549 68 96 0.0 0.0 0.00 0.00 0.00 82 1014.0
20260510055026 68 96 0.0 1.7 0.00 0.00 0.88 82 1014.1
20260510053539 68 40 0.0 0.9 0.00 0.00 0.88 82 1014.1
20260510052021 68 67 0.0 0.9 0.00 0.00 0.88 82 1014.0
20260510050527 69 67 0.0 0.0 0.00 0.00 0.88 82 1014.6
20260510045027 69 67 0.0 0.0 0.00 0.00 0.88 82 1014.8
20260510043519 69 67 0.0 0.0 0.00 0.00 0.88 82 1015.0
20260510042050 69 67 0.0 0.0 0.00 0.00 0.88 82 1015.2
20260510035018 69 67 0.0 0.0 0.00 0.00 0.88 82 1015.0
20260510032028 69 67 0.0 0.0 0.00 0.00 0.88 82 1015.1
20260510030532 69 67 0.0 0.0 0.01 0.00 0.88 82 1015.4
20260510025026 69 67 0.0 0.0 0.01 0.00 0.88 82 1014.9
20260510023519 69 67 0.0 0.0 0.01 0.00 0.88 82 1014.5
20260510022044 69 67 0.0 0.0 0.01 0.00 0.88 82 1014.4
20260510020516 69 67 0.0 0.0 0.00 0.00 0.87 81 1014.5
20260510015029 69 67 0.0 0.0 0.01 0.00 0.87 81 1015.0
20260510013519 69 67 0.0 0.0 0.01 0.00 0.87 81 1014.5
20260510012037 69 67 0.0 0.0 0.01 0.00 0.87 81 1014.5
20260510010542 70 67 0.0 0.0 0.01 0.00 0.87 81 1014.5
20260510005028 70 67 0.0 0.0 0.00 0.00 0.86 81 1014.6
20260510003520 70 67 0.0 0.9 0.01 0.00 0.86 81 1014.6
20260510002026 70 66 0.0 0.0 0.02 0.00 0.86 81 1014.3
20260510000531 70 66 0.0 0.0 0.00 0.00 0.86 81 1013.9
20260509235019 70 188 0.0 0.0 0.00 0.00 0.86 81 1013.1
20260509233530 70 188 0.0 0.0 0.00 0.00 0.85 81 1013.9
20260509232017 70 188 0.0 0.0 0.00 0.00 0.84 81 1013.5
20260509203527 70 269 0.0 0.9 0.00 0.00 0.79 81 1013.2